EW2348 Weather Reports


Display with metric or nautical units.
time (UTC)temp
F
wind
direction
speed
MPH
gust
MPH
rain 1hr
in
rain 24hr
in
rain mn
in
humidity
%
barometer
mb
20160525145801 69 90 1.0 5.0 0.00 0.00 0.00 67 1015.4
20160525145701 69 90 1.0 5.0 0.00 0.00 0.00 67 1015.3
20160525145602 69 90 2.0 5.0 0.00 0.00 0.00 67 1015.3
20160525145502 69 90 3.0 5.0 0.00 0.00 0.00 67 1015.5
20160525145201 69 92 1.0 5.0 0.00 0.00 0.00 67 1015.2
20160525144801 69 87 2.0 5.0 0.00 0.00 0.00 68 1015.5
20160525144601 69 88 1.0 5.0 0.00 0.00 0.00 67 1015.5
20160525144502 69 86 1.0 5.0 0.00 0.00 0.00 68 1015.5
20160525144401 69 90 2.0 5.0 0.00 0.00 0.00 68 1015.5
20160525144301 69 86 2.0 4.0 0.00 0.00 0.00 69 1015.5
20160525144201 69 85 1.0 4.0 0.00 0.00 0.00 68 1015.5
20160525144102 69 85 1.0 4.0 0.00 0.00 0.00 67 1015.5
20160525144002 69 85 1.0 4.0 0.00 0.00 0.00 68 1015.6
20160525143901 69 89 3.0 4.0 0.00 0.00 0.00 68 1015.4
20160525143801 69 88 1.0 3.0 0.00 0.00 0.00 69 1015.5
20160525143602 69 81 3.0 3.0 0.00 0.00 0.00 69 1015.2
20160525143501 69 77 1.0 6.0 0.00 0.00 0.00 68 1015.5
20160525143301 69 76 1.0 6.0 0.00 0.00 0.00 69 1015.3
20160525143101 69 81 1.0 6.0 0.00 0.00 0.00 68 1015.3
20160525143001 69 82 2.0 6.0 0.00 0.00 0.00 68 1015.2
20160525142501 69 91 4.0 6.0 0.00 0.00 0.00 67 1015.3
20160525142301 69 94 2.0 5.0 0.00 0.00 0.00 68 1015.5
20160525142201 69 93 3.0 5.0 0.00 0.00 0.00 67 1015.2
20160525142002 69 90 3.0 5.0 0.00 0.00 0.00 67 1015.1
20160525141701 69 90 1.0 4.0 0.00 0.00 0.00 68 1015.2
20160525141601 70 90 3.0 4.0 0.00 0.00 0.00 68 1015.4
20160525141301 70 90 3.0 3.0 0.00 0.00 0.00 67 1015.1
20160525141201 70 85 1.0 3.0 0.00 0.00 0.00 67 1015.0
20160525140902 70 85 1.0 3.0 0.00 0.00 0.00 68 1015.2
20160525140801 70 82 0.0 3.0 0.00 0.00 0.00 68 1015.2
20160525140701 69 72 1.0 3.0 0.00 0.00 0.00 68 1015.2
20160525140501 69 64 1.0 5.0 0.00 0.00 0.00 68 1015.1
20160525140401 69 67 1.0 5.0 0.00 0.00 0.00 68 1014.9
20160525140302 69 68 1.0 5.0 0.00 0.00 0.00 68 1015.2
20160525140202 69 69 1.0 5.0 0.00 0.00 0.00 68 1015.1
20160525140001 69 65 1.0 5.0 0.00 0.00 0.00 68 1015.1
20160525135802 69 75 1.0 5.0 0.00 0.00 0.00 68 1015.0
20160525135701 69 83 1.0 5.0 0.00 0.00 0.00 69 1015.0
20160525135501 69 87 3.0 5.0 0.00 0.00 0.00 69 1015.0
20160525135202 69 73 1.0 4.0 0.00 0.00 0.00 68 1015.1
20160525134602 69 64 1.0 4.0 0.00 0.00 0.00 67 1015.2
20160525134201 69 68 1.0 4.0 0.00 0.00 0.00 67 1015.2
20160525134002 68 79 1.0 4.0 0.00 0.00 0.00 69 1015.4
20160525133801 68 72 1.0 4.0 0.00 0.00 0.00 68 1015.2
20160525133702 68 69 2.0 4.0 0.00 0.00 0.00 67 1015.4
20160525133601 68 69 2.0 4.0 0.00 0.00 0.00 68 1015.3
20160525133401 68 77 2.0 4.0 0.00 0.00 0.00 69 1015.2
20160525133101 67 69 1.0 4.0 0.00 0.00 0.00 70 1015.5
20160525133001 67 69 1.0 4.0 0.00 0.00 0.00 70 1015.4
20160525132801 67 82 1.0 4.0 0.00 0.00 0.00 72 1015.3
20160525132701 67 79 1.0 4.0 0.00 0.00 0.00 70 1015.3
20160525132501 67 55 2.0 4.0 0.00 0.00 0.00 69 1015.4
20160525132402 67 43 3.0 4.0 0.00 0.00 0.00 70 1015.3
20160525132301 67 41 1.0 3.0 0.00 0.00 0.00 70 1015.2
20160525132001 67 58 1.0 3.0 0.00 0.00 0.00 70 1015.3
20160525131801 67 66 0.0 3.0 0.00 0.00 0.00 70 1015.4
20160525131701 67 71 1.0 3.0 0.00 0.00 0.00 70 1015.3
20160525131501 67 85 1.0 3.0 0.00 0.00 0.00 71 1015.4
20160525131201 66 90 1.0 3.0 0.00 0.00 0.00 71 1015.3
20160525131101 66 90 1.0 5.0 0.00 0.00 0.00 71 1015.3
20160525130802 66 90 1.0 5.0 0.00 0.00 0.00 71 1015.3
20160525130701 66 90 2.0 5.0 0.00 0.00 0.00 72 1015.3
20160525130601 66 90 1.0 5.0 0.00 0.00 0.00 71 1015.3
20160525130501 66 90 1.0 5.0 0.00 0.00 0.00 71 1015.3
20160525130302 66 83 2.0 5.0 0.00 0.00 0.00 72 1015.5
20160525130201 65 79 3.0 5.0 0.00 0.00 0.00 72 1015.5
20160525130101 65 77 2.0 5.0 0.00 0.00 0.00 72 1015.4
20160525125901 66 78 1.0 5.0 0.00 0.00 0.00 71 1015.6
20160525125701 66 71 2.0 5.0 0.00 0.00 0.00 70 1015.5
20160525125501 65 59 3.0 6.0 0.00 0.00 0.00 70 1015.5
20160525125401 65 59 2.0 6.0 0.00 0.00 0.00 70 1015.0
20160525125301 66 61 2.0 6.0 0.00 0.00 0.00 69 1015.2
20160525125202 65 65 2.0 6.0 0.00 0.00 0.00 69 1015.2
20160525125101 66 67 3.0 6.0 0.00 0.00 0.00 69 1015.3
20160525125001 66 66 3.0 6.0 0.00 0.00 0.00 69 1015.4
20160525124901 66 61 2.0 6.0 0.00 0.00 0.00 68 1015.2
20160525124701 66 69 2.0 6.0 0.00 0.00 0.00 68 1015.1
20160525124401 66 90 2.0 7.0 0.00 0.00 0.00 69 1015.3
20160525124101 66 90 2.0 7.0 0.00 0.00 0.00 68 1015.1
20160525123901 65 89 3.0 7.0 0.00 0.00 0.00 68 1015.1
20160525123701 65 86 3.0 7.0 0.00 0.00 0.00 67 1015.2
20160525123601 66 81 5.0 7.0 0.00 0.00 0.00 67 1015.2
20160525123501 66 85 2.0 5.0 0.00 0.00 0.00 68 1014.9
20160525123402 66 85 2.0 5.0 0.00 0.00 0.00 65 1015.1
20160525123301 66 83 1.0 5.0 0.00 0.00 0.00 65 1015.0
20160525123001 67 86 3.0 5.0 0.00 0.00 0.00 66 1015.1
20160525122902 67 83 3.0 5.0 0.00 0.00 0.00 65 1015.0
20160525122801 67 87 3.0 5.0 0.00 0.00 0.00 65 1015.1
20160525122601 66 77 3.0 5.0 0.00 0.00 0.00 68 1015.0
20160525122301 65 60 1.0 6.0 0.00 0.00 0.00 68 1014.8
20160525122201 65 63 3.0 6.0 0.00 0.00 0.00 68 1015.1
20160525122002 65 65 2.0 6.0 0.00 0.00 0.00 68 1015.0
20160525121701 65 67 2.0 6.0 0.00 0.00 0.00 68 1014.9
20160525121402 65 85 3.0 4.0 0.00 0.00 0.00 70 1014.8
20160525121101 64 87 2.0 3.0 0.00 0.00 0.00 72 1015.0
20160525121001 64 87 1.0 3.0 0.00 0.00 0.00 70 1014.8
20160525120601 64 90 2.0 5.0 0.00 0.00 0.00 71 1014.8
20160525120501 64 90 2.0 5.0 0.00 0.00 0.00 71 1014.7
20160525120402 64 90 2.0 5.0 0.00 0.00 0.00 71 1014.8
20160525120201 64 90 2.0 6.0 0.00 0.00 0.00 71 1014.9
20160525120002 64 90 2.0 6.0 0.00 0.00 0.00 71 1014.8
20160525115801 64 90 2.0 6.0 0.00 0.00 0.00 71 1014.9
20160525115701 64 90 2.0 6.0 0.00 0.00 0.00 71 1014.8
20160525115601 64 90 2.0 6.0 0.00 0.00 0.00 70 1014.8
20160525115502 64 90 3.0 6.0 0.00 0.00 0.00 70 1014.6
20160525115301 64 90 4.0 6.0 0.00 0.00 0.00 70 1014.7
20160525114801 64 87 3.0 5.0 0.00 0.00 0.00 69 1014.7
20160525114701 64 86 3.0 5.0 0.00 0.00 0.00 70 1014.7
20160525114601 63 82 2.0 4.0 0.00 0.00 0.00 69 1014.5
20160525114501 63 85 3.0 4.0 0.00 0.00 0.00 69 1014.7
20160525114302 63 85 3.0 4.0 0.00 0.00 0.00 70 1014.6
20160525114102 64 85 2.0 4.0 0.00 0.00 0.00 68 1014.7
20160525113901 64 79 3.0 5.0 0.00 0.00 0.00 68 1014.5
20160525113701 64 81 2.0 5.0 0.00 0.00 0.00 68 1014.5
20160525113501 64 82 2.0 5.0 0.00 0.00 0.00 69 1014.5
20160525113401 64 76 2.0 5.0 0.00 0.00 0.00 69 1014.6
20160525113200 64 76 2.0 5.0 0.00 0.00 0.00 68 1014.5
20160525113001 64 71 1.0 5.0 0.00 0.00 0.00 68 1014.4
20160525112501 63 60 2.0 5.0 0.00 0.00 0.00 68 1014.4
20160525112401 63 66 2.0 5.0 0.00 0.00 0.00 68 1014.5
20160525112201 63 56 1.0 5.0 0.00 0.00 0.00 67 1014.5
20160525111901 63 57 2.0 5.0 0.00 0.00 0.00 67 1014.5
20160525111701 63 67 2.0 5.0 0.00 0.00 0.00 68 1014.2
20160525111602 63 78 3.0 5.0 0.00 0.00 0.00 68 1014.3
20160525111501 63 82 3.0 5.0 0.00 0.00 0.00 68 1014.5
20160525111401 63 79 2.0 5.0 0.00 0.00 0.00 68 1014.2
20160525111301 63 71 2.0 5.0 0.00 0.00 0.00 67 1014.3
20160525111201 63 74 3.0 5.0 0.00 0.00 0.00 68 1014.3
20160525110801 63 81 2.0 5.0 0.00 0.00 0.00 67 1014.3
20160525110502 63 69 3.0 5.0 0.00 0.00 0.00 68 1014.4
20160525110401 63 71 3.0 5.0 0.00 0.00 0.00 68 1014.6
20160525110201 63 74 3.0 5.0 0.00 0.00 0.00 67 1014.4
20160525110101 63 71 3.0 5.0 0.00 0.00 0.00 68 1014.4
20160525110001 63 66 3.0 5.0 0.00 0.00 0.00 68 1014.4
20160525105801 63 63 3.0 5.0 0.00 0.00 0.00 68 1014.5
20160525105701 63 62 2.0 5.0 0.00 0.00 0.00 68 1014.4
20160525105601 63 69 3.0 5.0 0.00 0.00 0.00 68 1014.3
20160525105501 63 69 3.0 5.0 0.00 0.00 0.00 68 1014.5
20160525105201 63 69 3.0 5.0 0.00 0.00 0.00 68 1014.4
20160525105001 63 77 2.0 5.0 0.00 0.00 0.00 68 1014.5
20160525104801 63 80 3.0 5.0 0.00 0.00 0.00 68 1014.6
20160525104501 63 87 3.0 5.0 0.00 0.00 0.00 68 1014.5
20160525104202 63 85 3.0 7.0 0.00 0.00 0.00 68 1014.6
20160525104101 63 80 3.0 7.0 0.00 0.00 0.00 68 1014.3
20160525103800 63 79 3.0 7.0 0.00 0.00 0.00 68 1014.6
20160525103601 63 75 2.0 7.0 0.00 0.00 0.00 68 1014.7
20160525103401 63 77 2.0 5.0 0.00 0.00 0.00 68 1014.6
20160525103201 63 85 3.0 5.0 0.00 0.00 0.00 68 1014.6
20160525103102 63 88 2.0 5.0 0.00 0.00 0.00 68 1014.6
20160525103001 63 86 3.0 5.0 0.00 0.00 0.00 68 1014.5
20160525102802 63 86 2.0 5.0 0.00 0.00 0.00 68 1014.5
20160525102701 63 85 2.0 5.0 0.00 0.00 0.00 68 1014.4
20160525102401 63 80 3.0 5.0 0.00 0.00 0.00 68 1014.6
20160525102101 63 73 3.0 5.0 0.00 0.00 0.00 67 1014.6
20160525102001 63 77 3.0 5.0 0.00 0.00 0.00 67 1014.4
20160525101902 63 77 3.0 5.0 0.00 0.00 0.00 67 1014.5
20160525101601 63 82 3.0 5.0 0.00 0.00 0.00 67 1014.4
20160525101301 63 84 3.0 5.0 0.00 0.00 0.00 67 1014.4
20160525101101 63 90 2.0 5.0 0.00 0.00 0.00 66 1014.3
20160525101001 63 90 3.0 5.0 0.00 0.00 0.00 66 1013.9
20160525100801 63 90 3.0 5.0 0.00 0.00 0.00 67 1014.3
20160525100701 63 91 3.0 5.0 0.00 0.00 0.00 66 1014.5
20160525100501 63 93 3.0 5.0 0.00 0.00 0.00 66 1014.3
20160525100202 63 83 3.0 5.0 0.00 0.00 0.00 66 1014.4
20160525100101 63 72 3.0 5.0 0.00 0.00 0.00 66 1014.5
20160525100001 63 70 3.0 5.0 0.00 0.00 0.00 66 1014.2
20160525095702 63 60 2.0 5.0 0.00 0.00 0.00 66 1014.3
20160525095601 63 60 2.0 5.0 0.00 0.00 0.00 66 1014.4
20160525095501 63 58 3.0 5.0 0.00 0.00 0.00 66 1014.4
20160525095202 63 73 2.0 5.0 0.00 0.00 0.00 65 1014.3
20160525095101 63 81 3.0 5.0 0.00 0.00 0.00 65 1014.4
20160525094801 63 86 3.0 4.0 0.00 0.00 0.00 66 1014.5
20160525094700 63 84 3.0 4.0 0.00 0.00 0.00 66 1014.5
20160525094501 63 80 3.0 4.0 0.00 0.00 0.00 66 1014.5
20160525094401 63 81 3.0 5.0 0.00 0.00 0.00 66 1014.3
20160525094301 63 81 1.0 5.0 0.00 0.00 0.00 66 1014.3
20160525093601 63 86 2.0 5.0 0.00 0.00 0.00 65 1014.4
20160525093501 63 86 3.0 5.0 0.00 0.00 0.00 65 1014.5
20160525093402 63 80 3.0 4.0 0.00 0.00 0.00 65 1014.3
20160525093201 64 67 2.0 4.0 0.00 0.00 0.00 65 1014.5
20160525093101 64 64 2.0 4.0 0.00 0.00 0.00 65 1014.4
20160525093001 63 64 2.0 4.0 0.00 0.00 0.00 65 1014.4
20160525092801 63 60 3.0 4.0 0.00 0.00 0.00 65 1014.4
20160525092701 63 52 1.0 4.0 0.00 0.00 0.00 65 1014.4
20160525092601 63 52 2.0 4.0 0.00 0.00 0.00 65 1014.3
20160525092501 63 54 3.0 4.0 0.00 0.00 0.00 65 1014.3
20160525092301 63 71 1.0 4.0 0.00 0.00 0.00 65 1014.1
20160525092201 63 80 1.0 4.0 0.00 0.00 0.00 66 1014.4
20160525092101 63 84 2.0 4.0 0.00 0.00 0.00 66 1014.2
20160525092002 63 86 1.0 4.0 0.00 0.00 0.00 66 1014.1
20160525091901 63 87 1.0 4.0 0.00 0.00 0.00 66 1014.4
20160525091801 63 87 2.0 4.0 0.00 0.00 0.00 65 1014.2
20160525091701 63 91 1.0 4.0 0.00 0.00 0.00 65 1014.1
20160525091601 63 84 3.0 5.0 0.00 0.00 0.00 65 1014.2
20160525091401 63 79 2.0 5.0 0.00 0.00 0.00 65 1014.2
20160525091301 63 72 2.0 5.0 0.00 0.00 0.00 65 1014.1
20160525091201 63 69 3.0 5.0 0.00 0.00 0.00 65 1014.2
20160525090901 63 41 1.0 5.0 0.00 0.00 0.00 66 1014.1
20160525090701 63 25 2.0 5.0 0.00 0.00 0.00 66 1014.1
20160525090501 63 38 1.0 3.0 0.00 0.00 0.00 66 1014.1
20160525090401 63 42 1.0 3.0 0.00 0.00 0.00 66 1014.0
20160525090201 63 44 1.0 3.0 0.00 0.00 0.00 65 1014.1
20160525085901 63 40 1.0 3.0 0.00 0.00 0.00 65 1014.1
20160525085801 63 47 2.0 3.0 0.00 0.00 0.00 66 1014.0
20160525085501 63 45 1.0 3.0 0.00 0.00 0.00 66 1013.9
20160525085401 63 47 1.0 3.0 0.00 0.00 0.00 66 1014.2
20160525085301 63 52 1.0 3.0 0.00 0.00 0.00 66 1014.2
20160525085101 63 64 1.0 3.0 0.00 0.00 0.00 66 1014.1
20160525085001 63 74 1.0 3.0 0.00 0.00 0.00 66 1013.9
20160525084701 63 73 2.0 3.0 0.00 0.00 0.00 66 1014.0
20160525084501 63 77 1.0 3.0 0.00 0.00 0.00 66 1014.2
20160525084301 63 84 1.0 3.0 0.00 0.00 0.00 66 1014.3
20160525084201 63 87 1.0 3.0 0.00 0.00 0.00 66 1014.1
20160525084001 63 81 1.0 3.0 0.00 0.00 0.00 66 1014.2
20160525083801 63 89 1.0 3.0 0.00 0.00 0.00 66 1014.4
20160525083701 63 89 1.0 3.0 0.00 0.00 0.00 66 1014.1
20160525083601 63 89 0.0 3.0 0.00 0.00 0.00 66 1014.2
20160525083301 63 88 1.0 3.0 0.00 0.00 0.00 67 1014.0
20160525083201 63 81 2.0 3.0 0.00 0.00 0.00 67 1014.1
20160525082801 63 85 1.0 3.0 0.00 0.00 0.00 66 1014.3
20160525082701 63 78 1.0 3.0 0.00 0.00 0.00 66 1014.1
20160525082601 63 77 1.0 3.0 0.00 0.00 0.00 67 1014.0
20160525082501 63 74 1.0 3.0 0.00 0.00 0.00 67 1014.0
20160525082401 63 71 1.0 3.0 0.00 0.00 0.00 67 1014.3
20160525082301 63 68 1.0 3.0 0.00 0.00 0.00 67 1014.1
20160525082201 63 70 1.0 3.0 0.00 0.00 0.00 67 1014.2
20160525081801 63 72 1.0 3.0 0.00 0.00 0.00 66 1014.2
20160525081501 63 73 0.0 3.0 0.00 0.00 0.00 65 1014.1
20160525081201 63 76 1.0 2.0 0.00 0.00 0.00 66 1014.2
20160525080801 63 63 1.0 2.0 0.00 0.00 0.00 65 1014.0
20160525080601 63 38 0.0 2.0 0.00 0.00 0.00 65 1014.0
20160525080401 63 60 0.0 2.0 0.00 0.00 0.00 65 1014.1
20160525080301 63 69 0.0 3.0 0.00 0.00 0.00 65 1014.1
20160525080100 63 67 0.0 3.0 0.00 0.00 0.00 65 1014.1
20160525080001 63 71 0.0 3.0 0.00 0.00 0.00 65 1014.1
20160525075901 63 76 1.0 3.0 0.00 0.00 0.00 65 1014.0
20160525075600 63 76 1.0 3.0 0.00 0.00 0.00 65 1014.0
20160525075401 63 71 1.0 4.0 0.00 0.00 0.00 66 1014.0
20160525075201 63 65 0.0 4.0 0.00 0.00 0.00 66 1014.1
20160525075001 63 74 2.0 4.0 0.00 0.00 0.00 66 1013.8
20160525074901 63 71 1.0 4.0 0.00 0.00 0.00 66 1014.0
20160525074600 63 76 2.0 4.0 0.00 0.00 0.00 66 1013.9
20160525074501 63 77 1.0 3.0 0.00 0.00 0.00 66 1013.9
20160525074401 63 82 1.0 3.0 0.00 0.00 0.00 66 1013.9
20160525074301 63 87 2.0 3.0 0.00 0.00 0.00 66 1013.7
20160525074101 63 82 1.0 3.0 0.00 0.00 0.00 66 1013.7
20160525074001 63 76 1.0 4.0 0.00 0.00 0.00 66 1013.8
20160525073601 63 76 2.0 4.0 0.00 0.00 0.00 65 1013.8
20160525073502 63 75 1.0 4.0 0.00 0.00 0.00 65 1013.9
20160525073401 63 73 2.0 4.0 0.00 0.00 0.00 65 1013.8
20160525073301 63 69 2.0 4.0 0.00 0.00 0.00 65 1013.9
20160525073201 63 65 2.0 4.0 0.00 0.00 0.00 66 1013.8
20160525073101 63 67 2.0 4.0 0.00 0.00 0.00 66 1013.9
20160525072902 63 74 2.0 3.0 0.00 0.00 0.00 66 1013.8
20160525072701 63 82 1.0 3.0 0.00 0.00 0.00 66 1013.9
20160525072601 63 81 1.0 3.0 0.00 0.00 0.00 66 1013.8
20160525072501 63 80 1.0 3.0 0.00 0.00 0.00 66 1014.0
20160525072301 63 81 1.0 3.0 0.00 0.00 0.00 65 1013.8
20160525072201 63 83 1.0 3.0 0.00 0.00 0.00 65 1013.8
20160525072101 63 84 1.0 4.0 0.00 0.00 0.00 65 1013.8
20160525072001 64 84 1.0 4.0 0.00 0.00 0.00 64 1013.7
20160525071801 64 85 1.0 4.0 0.00 0.00 0.00 64 1013.9
20160525071701 64 85 2.0 4.0 0.00 0.00 0.00 64 1014.0
20160525071601 64 86 2.0 4.0 0.00 0.00 0.00 64 1013.9
20160525071301 64 90 2.0 5.0 0.00 0.00 0.00 64 1013.7
20160525071201 64 88 2.0 5.0 0.00 0.00 0.00 64 1013.9
20160525071101 64 88 3.0 5.0 0.00 0.00 0.00 64 1013.9
20160525071000 64 88 2.0 5.0 0.00 0.00 0.00 64 1013.9
20160525070400 64 84 1.0 4.0 0.00 0.00 0.00 64 1013.9
20160525070301 64 84 3.0 4.0 0.00 0.00 0.00 64 1013.9
20160525070201 64 87 2.0 4.0 0.00 0.00 0.00 65 1013.8
20160525070001 64 83 2.0 4.0 0.00 0.00 0.00 65 1013.8
20160525065801 64 82 1.0 5.0 0.00 0.00 0.00 65 1013.8
20160525065701 64 84 2.0 5.0 0.00 0.00 0.00 65 1013.7
20160525065501 64 89 1.0 5.0 0.00 0.00 0.00 64 1013.6
20160525065400 64 86 1.0 5.0 0.00 0.00 0.00 64 1013.8
20160525065301 64 86 2.0 5.0 0.00 0.00 0.00 64 1013.7
20160525065201 64 86 1.0 5.0 0.00 0.00 0.00 65 1013.8
20160525065001 64 90 2.0 5.0 0.00 0.00 0.00 65 1013.8
20160525064801 64 94 3.0 5.0 0.00 0.00 0.00 64 1013.8
20160525064701 64 94 1.0 5.0 0.00 0.00 0.00 65 1013.8
20160525064601 64 90 1.0 5.0 0.00 0.00 0.00 65 1013.8
20160525064401 64 90 3.0 5.0 0.00 0.00 0.00 64 1013.7
20160525064201 64 90 2.0 4.0 0.00 0.00 0.00 64 1013.6
20160525064101 65 87 1.0 4.0 0.00 0.00 0.00 64 1013.8
20160525064002 64 83 3.0 4.0 0.00 0.00 0.00 64 1013.8
20160525063901 64 83 2.0 4.0 0.00 0.00 0.00 64 1013.6
20160525063801 64 83 2.0 4.0 0.00 0.00 0.00 64 1013.7
20160525063500 65 79 1.0 4.0 0.00 0.00 0.00 64 1013.6
20160525063301 65 72 2.0 3.0 0.00 0.00 0.00 63 1013.7
20160525063201 65 67 2.0 3.0 0.00 0.00 0.00 63 1014.0
20160525063001 65 76 2.0 3.0 0.00 0.00 0.00 62 1013.7
20160525062901 65 75 1.0 3.0 0.00 0.00 0.00 62 1013.7
20160525062801 65 74 2.0 3.0 0.00 0.00 0.00 62 1013.7
20160525062401 65 54 2.0 4.0 0.00 0.00 0.00 63 1013.7
20160525062301 65 64 1.0 4.0 0.00 0.00 0.00 63 1013.8
20160525062001 65 74 1.0 4.0 0.00 0.00 0.00 62 1013.8
20160525061901 65 75 1.0 4.0 0.00 0.00 0.00 62 1013.8
20160525061801 65 75 1.0 4.0 0.00 0.00 0.00 61 1013.8
20160525061601 65 81 1.0 4.0 0.00 0.00 0.00 61 1013.7
20160525061501 65 85 1.0 4.0 0.00 0.00 0.00 60 1013.6
20160525061401 65 90 1.0 4.0 0.00 0.00 0.00 60 1013.5
20160525061301 65 90 1.0 4.0 0.00 0.00 0.00 60 1013.8
20160525061201 65 90 2.0 4.0 0.00 0.00 0.00 61 1013.5
20160525061101 65 90 2.0 3.0 0.00 0.00 0.00 61 1013.8
20160525060901 65 90 1.0 3.0 0.00 0.00 0.00 61 1013.6
20160525060801 65 88 2.0 3.0 0.00 0.00 0.00 61 1013.6
20160525060701 65 85 1.0 3.0 0.00 0.00 0.00 63 1013.6
20160525060601 65 85 1.0 3.0 0.00 0.00 0.00 63 1013.5
20160525060501 65 82 1.0 3.0 0.00 0.00 0.00 63 1013.5
20160525060201 65 81 1.0 3.0 0.00 0.00 0.00 63 1013.5
20160525055901 65 80 2.0 3.0 0.00 0.00 0.00 63 1013.5
20160525055701 65 79 1.0 3.0 0.00 0.00 0.00 62 1013.5
20160525055601 65 78 1.0 3.0 0.00 0.00 0.00 62 1013.7
20160525055500 65 80 1.0 3.0 0.00 0.00 0.00 62 1013.7
20160525055401 65 78 1.0 3.0 0.00 0.00 0.00 61 1013.8
20160525055301 65 78 2.0 3.0 0.00 0.00 0.00 61 1013.7
20160525055001 65 68 2.0 3.0 0.00 0.00 0.00 61 1013.6
20160525054901 65 68 1.0 3.0 0.00 0.00 0.00 60 1013.7
20160525054801 65 74 1.0 4.0 0.00 0.00 0.00 60 1013.6
20160525054701 65 77 1.0 4.0 0.00 0.00 0.00 60 1013.7
20160525054501 66 79 2.0 4.0 0.00 0.00 0.00 60 1013.7
20160525054401 66 82 2.0 4.0 0.00 0.00 0.00 60 1013.7
20160525054301 66 82 1.0 4.0 0.00 0.00 0.00 60 1013.6
20160525054101 66 84 2.0 4.0 0.00 0.00 0.00 60 1013.7
20160525053900 66 90 1.0 4.0 0.00 0.00 0.00 59 1013.8
20160525053701 66 88 1.0 4.0 0.00 0.00 0.00 59 1014.0
20160525053601 66 88 2.0 4.0 0.00 0.00 0.00 59 1013.9
20160525053501 66 88 2.0 4.0 0.00 0.00 0.00 59 1013.7
20160525053201 66 88 3.0 4.0 0.00 0.00 0.00 60 1013.8
20160525053101 66 88 1.0 4.0 0.00 0.00 0.00 60 1013.8
20160525053000 66 88 2.0 4.0 0.00 0.00 0.00 60 1013.9
20160525052903 66 87 2.0 4.0 0.00 0.00 0.00 60 1013.8
20160525052803 66 87 2.0 4.0 0.00 0.00 0.00 60 1013.9
20160525052703 66 89 1.0 4.0 0.00 0.00 0.00 60 1013.7
20160525052602 66 86 2.0 4.0 0.00 0.00 0.00 59 1013.7
20160525052403 66 90 2.0 4.0 0.00 0.00 0.00 59 1013.8
20160525052303 66 86 2.0 4.0 0.00 0.00 0.00 59 1013.9
20160525052101 66 86 1.0 5.0 0.00 0.00 0.00 57 1013.7
20160525051901 66 83 1.0 5.0 0.00 0.00 0.00 57 1013.8
20160525051701 67 82 3.0 5.0 0.00 0.00 0.00 56 1013.9
20160525051601 67 85 1.0 5.0 0.00 0.00 0.00 56 1014.0
20160525051401 67 81 3.0 5.0 0.00 0.00 0.00 56 1014.0
20160525051200 67 82 3.0 5.0 0.00 0.00 0.00 56 1014.0
20160525050801 67 80 3.0 5.0 0.00 0.00 0.00 56 1014.1
20160525050501 67 82 2.0 5.0 0.00 0.00 0.00 57 1013.7
20160525050401 67 78 3.0 5.0 0.00 0.00 0.00 57 1013.8
20160525050301 67 80 1.0 5.0 0.00 0.00 0.00 57 1013.7
20160525050201 67 81 3.0 5.0 0.00 0.00 0.00 58 1013.9
20160525050101 66 80 3.0 4.0 0.00 0.00 0.00 58 1014.0
20160525050000 66 77 3.0 4.0 0.00 0.00 0.00 58 1013.8
20160525045501 66 83 1.0 4.0 0.00 0.00 0.00 58 1013.9
20160525045400 66 87 2.0 5.0 0.00 0.00 0.00 58 1014.0
20160525045301 66 83 2.0 5.0 0.00 0.00 0.00 58 1013.9
20160525045101 66 82 2.0 5.0 0.00 0.00 0.00 58 1013.9
20160525045000 67 86 2.0 5.0 0.00 0.00 0.00 57 1013.8
20160525044701 67 76 2.0 5.0 0.00 0.00 0.00 57 1013.8
20160525044501 67 76 2.0 5.0 0.00 0.00 0.00 57 1013.8
20160525044103 67 71 3.0 4.0 0.00 0.00 0.00 57 1013.8
20160525044005 67 70 3.0 4.0 0.00 0.00 0.00 57 1013.9
20160525043610 67 80 2.0 4.0 0.00 0.00 0.00 57 1013.7
20160525043506 67 80 3.0 4.0 0.00 0.00 0.00 57 1013.9
20160525043413 67 80 2.0 4.0 0.00 0.00 0.00 58 1013.7
20160525043209 67 87 2.0 4.0 0.00 0.00 0.00 58 1013.7
20160525043001 67 90 2.0 3.0 0.00 0.00 0.00 57 1013.7
20160525042903 67 90 2.0 3.0 0.00 0.00 0.00 57 1013.8
20160525042706 67 90 1.0 3.0 0.00 0.00 0.00 57 1013.9
20160525042506 67 87 2.0 3.0 0.00 0.00 0.00 57 1013.8
20160525042401 67 86 1.0 3.0 0.00 0.00 0.00 57 1013.5
20160525042305 67 82 1.0 3.0 0.00 0.00 0.00 57 1013.7
20160525042204 67 81 1.0 3.0 0.00 0.00 0.00 57 1013.8
20160525042105 67 81 2.0 3.0 0.00 0.00 0.00 57 1013.6
20160525042004 67 81 1.0 3.0 0.00 0.00 0.00 57 1013.6
20160525041905 68 76 1.0 3.0 0.00 0.00 0.00 57 1013.7
20160525041612 67 78 1.0 3.0 0.00 0.00 0.00 57 1013.9
20160525041513 67 82 1.0 3.0 0.00 0.00 0.00 57 1013.9
20160525041401 68 84 1.0 3.0 0.00 0.00 0.00 57 1013.7
20160525041201 68 87 1.0 3.0 0.00 0.00 0.00 57 1013.9
20160525041100 68 87 1.0 3.0 0.00 0.00 0.00 57 1013.9
20160525041000 68 86 1.0 3.0 0.00 0.00 0.00 57 1014.1
20160525040801 67 90 2.0 3.0 0.00 0.00 0.00 58 1013.8
20160525040701 68 90 1.0 3.0 0.00 0.00 0.00 55 1013.9
20160525040601 68 90 1.0 3.0 0.00 0.00 0.00 55 1014.0
20160525040501 68 90 1.0 3.0 0.00 0.00 0.00 55 1014.1
20160525040303 68 90 1.0 3.0 0.00 0.00 0.00 55 1014.1
20160525040104 68 90 1.0 3.0 0.00 0.00 0.00 55 1014.0
20160525040001 68 90 1.0 3.0 0.00 0.00 0.00 55 1014.0
20160525035901 68 90 1.0 3.0 0.00 0.00 0.00 56 1014.1
20160525035301 68 83 1.0 3.0 0.00 0.00 0.00 56 1013.9
20160525034901 68 81 0.0 3.0 0.00 0.00 0.00 56 1014.0
20160525034801 68 77 0.0 3.0 0.00 0.00 0.00 56 1013.9
20160525034201 69 73 1.0 4.0 0.00 0.00 0.00 54 1013.8
20160525034100 69 70 1.0 4.0 0.00 0.00 0.00 54 1013.8
20160525034000 69 73 1.0 4.0 0.00 0.00 0.00 54 1013.8
20160525033701 69 80 3.0 4.0 0.00 0.00 0.00 53 1013.7
20160525033400 69 83 3.0 3.0 0.00 0.00 0.00 54 1013.9
20160525033301 69 87 2.0 3.0 0.00 0.00 0.00 54 1014.0
20160525033201 69 87 2.0 3.0 0.00 0.00 0.00 54 1013.8
20160525033101 69 90 1.0 3.0 0.00 0.00 0.00 54 1014.0
20160525033001 69 87 2.0 3.0 0.00 0.00 0.00 54 1014.0
20160525032900 69 87 2.0 3.0 0.00 0.00 0.00 54 1013.9
20160525032801 69 87 1.0 3.0 0.00 0.00 0.00 54 1013.9
20160525032601 69 80 1.0 3.0 0.00 0.00 0.00 54 1014.0
20160525032301 69 75 1.0 4.0 0.00 0.00 0.00 54 1013.9
20160525032201 69 71 2.0 4.0 0.00 0.00 0.00 54 1013.9
20160525032101 69 68 1.0 4.0 0.00 0.00 0.00 54 1014.0
20160525032000 69 68 1.0 4.0 0.00 0.00 0.00 54 1014.0
20160525031801 69 63 1.0 4.0 0.00 0.00 0.00 53 1014.0
20160525031701 69 63 1.0 4.0 0.00 0.00 0.00 53 1013.8
20160525031601 69 64 2.0 4.0 0.00 0.00 0.00 53 1014.0
20160525031501 69 65 1.0 4.0 0.00 0.00 0.00 53 1013.8
20160525031401 69 69 2.0 4.0 0.00 0.00 0.00 53 1014.0
20160525031301 69 71 2.0 3.0 0.00 0.00 0.00 53 1013.9
20160525031001 69 73 1.0 3.0 0.00 0.00 0.00 53 1013.9
20160525030801 69 80 3.0 4.0 0.00 0.00 0.00 54 1014.2
20160525030701 69 83 1.0 4.0 0.00 0.00 0.00 54 1014.1
20160525030601 69 82 1.0 4.0 0.00 0.00 0.00 54 1013.9
20160525030301 70 78 2.0 4.0 0.00 0.00 0.00 53 1014.0
20160525030201 70 76 2.0 4.0 0.00 0.00 0.00 54 1014.0
20160525025900 70 73 2.0 4.0 0.00 0.00 0.00 52 1014.1
20160525025801 70 73 2.0 4.0 0.00 0.00 0.00 54 1013.8
20160525025501 70 73 1.0 4.0 0.00 0.00 0.00 53 1013.9
20160525025400 70 77 1.0 4.0 0.00 0.00 0.00 54 1013.9
20160525025301 70 75 1.0 4.0 0.00 0.00 0.00 52 1014.1
20160525025201 70 76 1.0 4.0 0.00 0.00 0.00 52 1014.0
20160525025101 70 76 1.0 4.0 0.00 0.00 0.00 52 1013.9
20160525025001 70 81 2.0 4.0 0.00 0.00 0.00 52 1014.1
20160525024800 70 80 2.0 3.0 0.00 0.00 0.00 52 1013.9
20160525024601 70 78 1.0 3.0 0.00 0.00 0.00 52 1013.9
20160525024501 70 76 1.0 3.0 0.00 0.00 0.00 52 1014.0
20160525024301 70 78 2.0 4.0 0.00 0.00 0.00 52 1014.0
20160525024201 70 73 1.0 4.0 0.00 0.00 0.00 52 1013.8
20160525024101 70 69 2.0 4.0 0.00 0.00 0.00 52 1013.8
20160525024001 70 65 1.0 4.0 0.00 0.00 0.00 51 1013.8
20160525023901 70 65 1.0 4.0 0.00 0.00 0.00 50 1013.6
20160525023800 70 68 1.0 4.0 0.00 0.00 0.00 50 1013.6
20160525023701 71 69 1.0 4.0 0.00 0.00 0.00 49 1013.7
20160525023501 71 64 1.0 4.0 0.00 0.00 0.00 48 1013.8
20160525023401 71 61 1.0 4.0 0.00 0.00 0.00 48 1013.7
20160525023301 71 60 2.0 4.0 0.00 0.00 0.00 47 1013.7
20160525023100 71 70 1.0 3.0 0.00 0.00 0.00 46 1013.8
20160525023001 71 70 1.0 3.0 0.00 0.00 0.00 45 1013.7
20160525022901 71 68 2.0 3.0 0.00 0.00 0.00 44 1013.8
20160525022801 71 70 1.0 3.0 0.00 0.00 0.00 44 1013.7
20160525022600 72 77 2.0 3.0 0.00 0.00 0.00 41 1013.9
20160525022201 72 82 1.0 3.0 0.00 0.00 0.00 39 1013.7
20160525021800 72 84 1.0 3.0 0.00 0.00 0.00 39 1013.5
20160525021700 72 90 1.0 2.0 0.00 0.00 0.00 38 1013.7
20160525021501 72 90 0.0 1.0 0.00 0.00 0.00 38 1013.6
20160525021401 72 90 0.0 1.0 0.00 0.00 0.00 37 1013.7
20160525021301 72 90 0.0 1.0 0.00 0.00 0.00 37 1013.8
20160525021201 72 90 1.0 1.0 0.00 0.00 0.00 36 1013.6
20160525021001 72 90 0.0 1.0 0.00 0.00 0.00 36 1013.7
20160525020801 72 31 0.0 1.0 0.00 0.00 0.00 36 1013.5
20160525020501 72 71 0.0 2.0 0.00 0.00 0.00 35 1013.6
20160525020401 72 76 0.0 2.0 0.00 0.00 0.00 35 1013.5
20160525020300 72 80 0.0 3.0 0.00 0.00 0.00 35 1013.6
20160525020200 72 82 0.0 3.0 0.00 0.00 0.00 35 1013.5
20160525020101 72 82 0.0 3.0 0.00 0.00 0.00 35 1013.5
20160525015601 73 85 1.0 3.0 0.00 0.00 0.00 34 1013.5
20160525015401 73 85 2.0 3.0 0.00 0.00 0.00 34 1013.5
20160525015200 73 84 1.0 3.0 0.00 0.00 0.00 33 1013.4
20160525014600 74 90 1.0 4.0 0.00 0.00 0.00 34 1013.3
20160525014501 74 90 1.0 4.0 0.00 0.00 0.00 33 1013.6
20160525014201 74 90 1.0 4.0 0.00 0.00 0.00 33 1013.3
20160525014001 74 90 1.0 4.0 0.00 0.00 0.00 33 1013.3
20160525013901 74 90 1.0 4.0 0.00 0.00 0.00 33 1013.5
20160525013800 74 90 1.0 4.0 0.00 0.00 0.00 33 1013.3
20160525013601 74 90 1.0 4.0 0.00 0.00 0.00 33 1013.5
20160525013501 74 90 2.0 4.0 0.00 0.00 0.00 33 1013.4
20160525013400 74 90 1.0 3.0 0.00 0.00 0.00 32 1013.4
20160525013300 74 87 1.0 3.0 0.00 0.00 0.00 33 1013.6
20160525013201 74 86 2.0 3.0 0.00 0.00 0.00 32 1013.4
20160525012900 74 87 0.0 3.0 0.00 0.00 0.00 33 1013.4
20160525012701 74 87 1.0 3.0 0.00 0.00 0.00 33 1013.4
20160525012601 74 87 1.0 3.0 0.00 0.00 0.00 33 1013.3
20160525012001 74 90 1.0 2.0 0.00 0.00 0.00 33 1013.4
20160525011701 73 94 0.0 2.0 0.00 0.00 0.00 33 1013.4
20160525011601 74 94 0.0 2.0 0.00 0.00 0.00 33 1013.4
20160525011501 74 93 0.0 2.0 0.00 0.00 0.00 33 1013.3
20160525011300 74 93 1.0 2.0 0.00 0.00 0.00 33 1013.3
20160525011101 73 94 0.0 2.0 0.00 0.00 0.00 33 1013.3
20160525011001 73 97 1.0 2.0 0.00 0.00 0.00 33 1013.5
20160525010900 73 101 1.0 2.0 0.00 0.00 0.00 33 1013.3
20160525010800 74 103 1.0 2.0 0.00 0.00 0.00 32 1013.4
20160525010601 73 113 1.0 2.0 0.00 0.00 0.00 32 1013.4
20160525010501 73 113 1.0 2.0 0.00 0.00 0.00 32 1013.3
20160525010301 73 111 1.0 3.0 0.00 0.00 0.00 32 1013.2
20160525010201 73 110 1.0 3.0 0.00 0.00 0.00 31 1013.3
20160525010001 74 104 1.0 3.0 0.00 0.00 0.00 30 1013.2
20160525005801 74 101 1.0 3.0 0.00 0.00 0.00 30 1013.0
20160525005601 75 94 1.0 3.0 0.00 0.00 0.00 30 1013.2
20160525005501 75 93 1.0 3.0 0.00 0.00 0.00 30 1012.9
20160525005300 75 93 1.0 3.0 0.00 0.00 0.00 30 1013.2
20160525005201 74 93 1.0 3.0 0.00 0.00 0.00 30 1013.1
20160525005101 74 93 1.0 3.0 0.00 0.00 0.00 31 1013.0
20160525004601 74 90 1.0 3.0 0.00 0.00 0.00 32 1013.0
20160525004501 75 90 1.0 3.0 0.00 0.00 0.00 31 1013.0
20160525004401 75 90 1.0 3.0 0.00 0.00 0.00 31 1013.1
20160525004301 75 90 1.0 3.0 0.00 0.00 0.00 31 1013.2
20160525004201 75 90 1.0 2.0 0.00 0.00 0.00 32 1013.3
20160525004101 74 90 1.0 2.0 0.00 0.00 0.00 33 1013.1
20160525003800 75 90 0.0 2.0 0.00 0.00 0.00 32 1013.0
20160525003401 75 90 1.0 2.0 0.00 0.00 0.00 32 1013.3
20160525003300 75 90 1.0 2.0 0.00 0.00 0.00 32 1013.1
20160525003101 75 90 1.0 2.0 0.00 0.00 0.00 33 1013.3
20160525003001 75 90 1.0 2.0 0.00 0.00 0.00 32 1013.2
20160525002901 75 90 1.0 2.0 0.00 0.00 0.00 31 1013.1
20160525002801 75 90 1.0 2.0 0.00 0.00 0.00 32 1013.0
20160525002701 75 90 1.0 2.0 0.00 0.00 0.00 32 1013.2
20160525002301 75 91 1.0 3.0 0.00 0.00 0.00 32 1013.1
20160525002101 75 104 0.0 3.0 0.00 0.00 0.00 30 1013.4
20160525002001 76 110 0.0 3.0 0.00 0.00 0.00 30 1013.3
20160525001800 75 133 1.0 6.0 0.00 0.00 0.00 30 1013.3
20160525001501 76 143 2.0 6.0 0.00 0.00 0.00 30 1013.2
20160525001300 76 145 0.0 6.0 0.00 0.00 0.00 29 1013.2
20160525001100 76 141 1.0 6.0 0.00 0.00 0.00 29 1013.2
20160525001001 76 139 2.0 6.0 0.00 0.00 0.00 28 1013.1
20160525000901 76 133 2.0 6.0 0.00 0.00 0.00 29 1013.4
20160525000700 78 128 3.0 5.0 0.00 0.00 0.00 27 1013.2
20160525000601 78 126 3.0 5.0 0.00 0.00 0.00 27 1013.2
20160525000501 78 124 3.0 5.0 0.00 0.00 0.00 27 1013.2
20160525000301 78 124 3.0 5.0 0.00 0.00 0.00 27 1013.1
20160525000201 78 124 3.0 5.0 0.00 0.00 0.00 27 1013.2
20160525000100 78 126 3.0 5.0 0.00 0.00 0.00 27 1013.2
20160524235801 79 143 3.0 5.0 0.00 0.00 0.00 26 1013.1
20160524235601 78 149 1.0 5.0 0.00 0.00 0.00 26 1013.2
20160524235304 79 158 3.0 5.0 0.00 0.00 0.00 24 1013.0
20160524234800 79 141 1.0 5.0 0.00 0.00 0.00 26 1013.2
20160524234701 79 142 1.0 5.0 0.00 0.00 0.00 25 1013.2
20160524234501 79 146 2.0 5.0 0.00 0.00 0.00 26 1013.2
20160524234401 79 147 2.0 5.0 0.00 0.00 0.00 25 1013.1
20160524234301 79 146 3.0 5.0 0.00 0.00 0.00 25 1013.1
20160524234202 79 150 3.0 6.0 0.00 0.00 0.00 24 1013.2
20160524234101 79 153 3.0 6.0 0.00 0.00 0.00 25 1013.3
20160524233901 80 158 3.0 6.0 0.00 0.00 0.00 25 1013.2
20160524233601 80 156 2.0 6.0 0.00 0.00 0.00 26 1013.2
20160524233500 80 147 1.0 6.0 0.00 0.00 0.00 25 1013.4
20160524233201 80 142 4.0 7.0 0.00 0.00 0.00 28 1013.2
20160524232901 80 150 2.0 7.0 0.00 0.00 0.00 24 1013.4
20160524232801 80 150 3.0 7.0 0.00 0.00 0.00 25 1013.1
20160524232601 79 153 3.0 7.0 0.00 0.00 0.00 26 1013.4
20160524232201 80 154 1.0 7.0 0.00 0.00 0.00 26 1013.0
20160524231702 82 112 0.0 5.0 0.00 0.00 0.00 26 1013.0
20160524231602 81 108 1.0 5.0 0.00 0.00 0.00 26 1013.0
20160524231501 81 116 2.0 5.0 0.00 0.00 0.00 24 1013.0
20160524231401 81 122 2.0 5.0 0.00 0.00 0.00 25 1013.0
20160524231300 81 123 1.0 5.0 0.00 0.00 0.00 24 1012.9
20160524231201 81 126 1.0 5.0 0.00 0.00 0.00 23 1013.0
20160524231001 80 128 3.0 5.0 0.00 0.00 0.00 25 1013.0
20160524230901 80 132 3.0 5.0 0.00 0.00 0.00 24 1012.9
20160524230701 80 130 4.0 7.0 0.00 0.00 0.00 26 1012.9
20160524230601 81 128 2.0 7.0 0.00 0.00 0.00 25 1012.8
20160524230400 81 111 3.0 7.0 0.00 0.00 0.00 23 1012.8
20160524230101 82 99 3.0 7.0 0.00 0.00 0.00 28 1013.0
20160524230001 82 96 1.0 7.0 0.00 0.00 0.00 23 1012.9
20160524225900 80 95 1.0 7.0 0.00 0.00 0.00 24 1012.7
20160524225701 80 104 3.0 7.0 0.00 0.00 0.00 25 1012.7
20160524225501 80 113 2.0 7.0 0.00 0.00 0.00 26 1012.8
20160524225300 81 118 2.0 7.0 0.00 0.00 0.00 22 1012.8
20160524225201 81 124 4.0 7.0 0.00 0.00 0.00 22 1012.7
20160524225102 80 118 3.0 7.0 0.00 0.00 0.00 24 1012.6
20160524225001 81 122 4.0 7.0 0.00 0.00 0.00 23 1012.7
20160524224901 81 127 3.0 7.0 0.00 0.00 0.00 21 1012.6
20160524224600 81 121 2.0 7.0 0.00 0.00 0.00 23 1012.6
20160524224500 81 127 2.0 7.0 0.00 0.00 0.00 23 1012.7
20160524224400 80 131 3.0 7.0 0.00 0.00 0.00 24 1012.7
20160524224201 82 136 3.0 5.0 0.00 0.00 0.00 23 1012.8
20160524224100 81 134 3.0 5.0 0.00 0.00 0.00 23 1012.7
20160524224000 82 126 4.0 6.0 0.00 0.00 0.00 28 1012.7
20160524223901 82 122 1.0 8.0 0.00 0.00 0.00 26 1012.6
20160524223501 82 136 4.0 8.0 0.00 0.00 0.00 24 1012.7
20160524223401 82 132 2.0 8.0 0.00 0.00 0.00 26 1012.5
20160524223300 81 132 1.0 8.0 0.00 0.00 0.00 24 1012.7
20160524222700 81 155 3.0 7.0 0.00 0.00 0.00 23 1012.7
20160524222600 81 157 4.0 7.0 0.00 0.00 0.00 22 1012.7
20160524222500 80 150 5.0 7.0 0.00 0.00 0.00 23 1012.6
20160524222401 81 150 5.0 7.0 0.00 0.00 0.00 25 1012.7
20160524222301 81 154 4.0 7.0 0.00 0.00 0.00 25 1012.5
20160524221901 82 147 1.0 7.0 0.00 0.00 0.00 23 1012.6
20160524221700 82 132 3.0 7.0 0.00 0.00 0.00 26 1012.6
20160524221501 82 121 2.0 7.0 0.00 0.00 0.00 27 1012.6
20160524221300 82 113 2.0 7.0 0.00 0.00 0.00 25 1012.6
20160524221201 81 108 2.0 7.0 0.00 0.00 0.00 23 1012.6
20160524220901 82 92 4.0 6.0 0.00 0.00 0.00 27 1012.8
20160524220800 82 93 1.0 6.0 0.00 0.00 0.00 28 1012.9
20160524220701 81 98 3.0 6.0 0.00 0.00 0.00 22 1012.6
20160524220601 81 106 3.0 6.0 0.00 0.00 0.00 22 1012.7
20160524220501 81 113 3.0 6.0 0.00 0.00 0.00 22 1012.7
20160524220101 81 128 3.0 7.0 0.00 0.00 0.00 22 1012.6
20160524220001 81 134 3.0 7.0 0.00 0.00 0.00 22 1012.7
20160524215900 82 143 3.0 7.0 0.00 0.00 0.00 21 1012.6
20160524215800 81 139 3.0 7.0 0.00 0.00 0.00 22 1012.6
20160524215701 81 129 3.0 7.0 0.00 0.00 0.00 22 1012.8
20160524215601 81 116 4.0 7.0 0.00 0.00 0.00 22 1012.7
20160524215401 81 112 2.0 7.0 0.00 0.00 0.00 24 1012.6
20160524215201 81 115 3.0 7.0 0.00 0.00 0.00 22 1012.8
20160524215001 81 102 3.0 7.0 0.00 0.00 0.00 22 1013.0
20160524214800 82 109 3.0 7.0 0.00 0.00 0.00 22 1012.9
20160524214701 81 113 3.0 7.0 0.00 0.00 0.00 22 1012.8
20160524214301 81 122 3.0 7.0 0.00 0.00 0.00 24 1012.9
20160524214200 81 123 2.0 7.0 0.00 0.00 0.00 23 1012.7
20160524214101 81 129 2.0 7.0 0.00 0.00 0.00 22 1012.8
20160524214001 81 136 4.0 7.0 0.00 0.00 0.00 21 1012.7
20160524213800 82 122 2.0 5.0 0.00 0.00 0.00 24 1012.8
20160524213701 82 111 3.0 6.0 0.00 0.00 0.00 22 1012.7
20160524213601 85 111 4.0 6.0 0.00 0.00 0.00 26 1012.6
20160524213501 86 108 1.0 6.0 0.00 0.00 0.00 25 1012.5
20160524213400 86 114 1.0 7.0 0.00 0.00 0.00 25 1012.7
20160524213300 84 110 0.0 7.0 0.00 0.00 0.00 25 1012.6
20160524213201 84 104 0.0 7.0 0.00 0.00 0.00 24 1012.5
20160524213101 82 104 0.0 7.0 0.00 0.00 0.00 22 1012.5
20160524212900 80 123 3.0 9.0 0.00 0.00 0.00 23 1012.6
20160524211700 81 153 4.0 7.0 0.00 0.00 0.00 24 1012.7
20160524211600 81 142 5.0 7.0 0.00 0.00 0.00 26 1012.4
20160524211100 81 131 1.0 10.0 0.00 0.00 0.00 22 1012.5
20160524210801 80 134 3.0 10.0 0.00 0.00 0.00 23 1012.7
20160524210701 80 135 5.0 10.0 0.00 0.00 0.00 23 1012.6
20160524210600 80 143 3.0 10.0 0.00 0.00 0.00 24 1012.6
20160524210301 81 165 3.0 7.0 0.00 0.00 0.00 26 1012.7
20160524210201 81 167 2.0 7.0 0.00 0.00 0.00 26 1012.6
20160524210000 80 148 3.0 7.0 0.00 0.00 0.00 26 1012.5
20160524205900 80 145 4.0 7.0 0.00 0.00 0.00 24 1012.5
20160524205801 82 144 5.0 9.0 0.00 0.00 0.00 28 1012.7
20160524205701 81 138 1.0 9.0 0.00 0.00 0.00 28 1012.8
20160524205601 82 130 3.0 9.0 0.00 0.00 0.00 22 1012.8
20160524205500 81 120 3.0 9.0 0.00 0.00 0.00 22 1012.5
20160524205400 81 115 2.0 9.0 0.00 0.00 0.00 22 1012.7
20160524205201 80 115 1.0 9.0 0.00 0.00 0.00 23 1012.7
20160524205101 80 114 2.0 9.0 0.00 0.00 0.00 23 1012.9
20160524205000 80 118 5.0 9.0 0.00 0.00 0.00 23 1012.5
20160524204900 80 125 5.0 9.0 0.00 0.00 0.00 24 1012.6
20160524204800 81 127 7.0 9.0 0.00 0.00 0.00 26 1012.8
20160524204601 81 128 1.0 9.0 0.00 0.00 0.00 28 1012.7
20160524204501 80 126 2.0 9.0 0.00 0.00 0.00 27 1012.6
20160524204400 80 125 4.0 9.0 0.00 0.00 0.00 26 1012.8
20160524204201 80 121 3.0 9.0 0.00 0.00 0.00 30 1012.8
20160524204101 80 123 3.0 9.0 0.00 0.00 0.00 27 1012.8
20160524203900 80 118 5.0 9.0 0.00 0.00 0.00 27 1012.8
20160524203800 80 112 5.0 9.0 0.00 0.00 0.00 28 1012.7
20160524203501 80 118 5.0 8.0 0.00 0.00 0.00 27 1012.8
20160524203401 81 123 6.0 9.0 0.00 0.00 0.00 26 1012.7
20160524203300 81 132 3.0 9.0 0.00 0.00 0.00 31 1012.8
20160524203201 82 133 3.0 9.0 0.00 0.00 0.00 33 1012.8
20160524203001 80 131 1.0 9.0 0.00 0.00 0.00 29 1012.8
20160524202800 80 126 4.0 9.0 0.00 0.00 0.00 31 1012.9
20160524202500 80 128 6.0 9.0 0.00 0.00 0.00 28 1012.8
20160524202400 80 119 6.0 9.0 0.00 0.00 0.00 32 1013.0
20160524202101 80 106 3.0 9.0 0.00 0.00 0.00 31 1013.1
20160524201700 80 104 6.0 11.0 0.00 0.00 0.00 28 1012.9
20160524201601 81 98 4.0 11.0 0.00 0.00 0.00 29 1012.9
20160524201300 81 91 1.0 11.0 0.00 0.00 0.00 33 1012.8
20160524201001 81 92 3.0 11.0 0.00 0.00 0.00 31 1013.0
20160524200801 80 98 1.0 11.0 0.00 0.00 0.00 30 1013.0
20160524200600 79 103 7.0 11.0 0.00 0.00 0.00 31 1013.2
20160524200501 79 107 7.0 11.0 0.00 0.00 0.00 31 1013.2
20160524200401 79 105 7.0 11.0 0.00 0.00 0.00 31 1013.2
20160524200200 79 120 7.0 11.0 0.00 0.00 0.00 31 1013.3
20160524200100 79 123 7.0 11.0 0.00 0.00 0.00 31 1013.2
20160524200001 79 130 7.0 11.0 0.00 0.00 0.00 31 1013.3
20160524195901 79 116 6.0 10.0 0.00 0.00 0.00 30 1013.3
20160524195700 80 84 3.0 11.0 0.00 0.00 0.00 30 1013.2
20160524195600 80 90 4.0 11.0 0.00 0.00 0.00 30 1013.1
20160524195301 80 92 4.0 11.0 0.00 0.00 0.00 33 1013.2
20160524195001 79 82 5.0 11.0 0.00 0.00 0.00 32 1013.4
20160524194601 80 113 2.0 9.0 0.00 0.00 0.00 34 1013.2
20160524194500 80 111 5.0 9.0 0.00 0.00 0.00 34 1013.4
20160524194301 80 102 3.0 11.0 0.00 0.00 0.00 33 1013.2
20160524194200 80 113 2.0 11.0 0.00 0.00 0.00 34 1013.2
20160524194100 80 114 1.0 11.0 0.00 0.00 0.00 35 1013.4
20160524194000 80 123 1.0 11.0 0.00 0.00 0.00 32 1013.2
20160524193901 79 122 2.0 11.0 0.00 0.00 0.00 33 1013.2
20160524193700 79 115 3.0 12.0 0.00 0.00 0.00 33 1013.4
20160524193601 79 112 4.0 12.0 0.00 0.00 0.00 34 1013.4
20160524193401 79 117 7.0 12.0 0.00 0.00 0.00 34 1013.3
20160524193000 79 114 5.0 12.0 0.00 0.00 0.00 33 1013.5
20160524192901 79 117 7.0 12.0 0.00 0.00 0.00 33 1013.7
20160524192801 79 127 8.0 12.0 0.00 0.00 0.00 32 1013.5
20160524192600 79 135 4.0 13.0 0.00 0.00 0.00 33 1013.5
20160524192201 79 146 5.0 13.0 0.00 0.00 0.00 35 1013.6
20160524192101 79 144 4.0 13.0 0.00 0.00 0.00 32 1013.5
20160524192000 78 143 6.0 13.0 0.00 0.00 0.00 34 1013.5
20160524191800 78 129 9.0 13.0 0.00 0.00 0.00 33 1013.3
20160524191500 79 123 8.0 13.0 0.00 0.00 0.00 34 1013.5
20160524191300 78 118 7.0 11.0 0.00 0.00 0.00 33 1013.6
20160524191101 79 114 5.0 11.0 0.00 0.00 0.00 32 1013.7
20160524191001 79 114 7.0 10.0 0.00 0.00 0.00 32 1013.5
20160524190600 79 110 1.0 9.0 0.00 0.00 0.00 35 1013.3
20160524190200 79 111 3.0 7.0 0.00 0.00 0.00 37 1013.5
20160524185601 78 119 3.0 11.0 0.00 0.00 0.00 36 1013.4
20160524185400 79 121 5.0 11.0 0.00 0.00 0.00 35 1013.6
20160524185301 79 114 5.0 11.0 0.00 0.00 0.00 36 1013.6
20160524184900 79 107 5.0 9.0 0.00 0.00 0.00 34 1013.5
20160524184700 79 113 6.0 9.0 0.00 0.00 0.00 34 1013.5
20160524184601 78 129 3.0 9.0 0.00 0.00 0.00 34 1013.7
20160524184200 78 153 3.0 11.0 0.00 0.00 0.00 35 1013.7
20160524183901 78 138 4.0 11.0 0.00 0.00 0.00 36 1013.7
20160524183800 79 125 5.0 11.0 0.00 0.00 0.00 33 1013.9
20160524183400 79 120 5.0 9.0 0.00 0.00 0.00 36 1013.9
20160524183300 80 127 7.0 9.0 0.00 0.00 0.00 36 1014.1
20160524183100 80 125 3.0 9.0 0.00 0.00 0.00 33 1014.0
20160524183000 79 129 5.0 9.0 0.00 0.00 0.00 33 1013.9
20160524182901 80 135 5.0 9.0 0.00 0.00 0.00 33 1013.9
20160524182500 79 119 1.0 10.0 0.00 0.00 0.00 36 1014.0
20160524182401 79 99 5.0 10.0 0.00 0.00 0.00 42 1014.0
20160524182000 78 108 3.0 10.0 0.00 0.00 0.00 38 1014.1
20160524181901 78 101 4.0 10.0 0.00 0.00 0.00 39 1014.1
20160524181700 78 99 6.0 10.0 0.00 0.00 0.00 37 1014.1
20160524181600 78 104 5.0 8.0 0.00 0.00 0.00 37 1014.1
20160524181500 78 105 5.0 8.0 0.00 0.00 0.00 37 1014.0
20160524181001 78 93 4.0 7.0 0.00 0.00 0.00 42 1014.2
20160524180901 78 92 3.0 5.0 0.00 0.00 0.00 44 1014.2
20160524180700 78 95 3.0 8.0 0.00 0.00 0.00 35 1013.9
20160524180600 78 91 3.0 8.0 0.00 0.00 0.00 35 1014.0
20160524180401 78 91 3.0 8.0 0.00 0.00 0.00 35 1014.2
20160524180200 78 95 3.0 8.0 0.00 0.00 0.00 35 1014.0
20160524175901 77 109 4.0 8.0 0.00 0.00 0.00 34 1014.0
20160524175600 79 110 3.0 6.0 0.00 0.00 0.00 36 1014.0
20160524175401 78 111 1.0 6.0 0.00 0.00 0.00 36 1014.1
20160524175300 78 116 1.0 6.0 0.00 0.00 0.00 37 1014.0
20160524175200 78 118 2.0 6.0 0.00 0.00 0.00 37 1014.0
20160524174901 78 113 4.0 8.0 0.00 0.00 0.00 39 1014.2
20160524174800 78 105 4.0 8.0 0.00 0.00 0.00 43 1014.2
20160524174700 78 107 4.0 8.0 0.00 0.00 0.00 37 1014.2
20160524174600 78 108 3.0 8.0 0.00 0.00 0.00 36 1014.1
20160524174501 78 109 3.0 8.0 0.00 0.00 0.00 34 1014.0
20160524174401 77 106 3.0 8.0 0.00 0.00 0.00 34 1014.2
20160524173900 78 72 2.0 8.0 0.00 0.00 0.00 34 1014.2
20160524173400 78 90 6.0 8.0 0.00 0.00 0.00 41 1014.1
20160524173201 77 92 3.0 8.0 0.00 0.00 0.00 39 1014.3
20160524173100 76 93 4.0 8.0 0.00 0.00 0.00 37 1014.1
20160524173000 76 93 7.0 8.0 0.00 0.00 0.00 38 1014.3
20160524172901 77 93 5.0 8.0 0.00 0.00 0.00 39 1014.2
20160524172601 77 99 5.0 9.0 0.00 0.00 0.00 37 1014.3
20160524172500 77 90 5.0 9.0 0.00 0.00 0.00 37 1014.3
20160524172100 77 102 5.0 11.0 0.00 0.00 0.00 36 1014.2
20160524172001 77 104 3.0 11.0 0.00 0.00 0.00 38 1014.2
20160524171901 76 107 4.0 11.0 0.00 0.00 0.00 36 1014.2
20160524171800 77 98 6.0 11.0 0.00 0.00 0.00 38 1014.3
20160524171600 78 94 5.0 11.0 0.00 0.00 0.00 39 1014.3
20160524171501 77 98 5.0 11.0 0.00 0.00 0.00 39 1014.0
20160524171401 76 102 7.0 11.0 0.00 0.00 0.00 38 1014.1
20160524171200 77 89 7.0 10.0 0.00 0.00 0.00 38 1014.3
20160524170900 77 91 5.0 10.0 0.00 0.00 0.00 36 1014.4
20160524170800 76 98 4.0 10.0 0.00 0.00 0.00 36 1014.4
20160524170600 77 99 3.0 10.0 0.00 0.00 0.00 39 1014.5
20160524170400 76 105 3.0 10.0 0.00 0.00 0.00 38 1014.3
20160524170101 77 120 4.0 9.0 0.00 0.00 0.00 44 1014.3
20160524165800 78 100 5.0 7.0 0.00 0.00 0.00 43 1014.3
20160524165601 77 106 1.0 7.0 0.00 0.00 0.00 40 1014.4
20160524165501 77 107 4.0 7.0 0.00 0.00 0.00 44 1014.2
20160524165300 77 88 2.0 7.0 0.00 0.00 0.00 42 1014.4
20160524165201 77 74 3.0 7.0 0.00 0.00 0.00 42 1014.4
20160524164900 77 84 3.0 10.0 0.00 0.00 0.00 43 1014.2
20160524164502 76 97 1.0 10.0 0.00 0.00 0.00 44 1014.5
20160524164300 76 100 5.0 10.0 0.00 0.00 0.00 45 1014.3
20160524164200 76 106 3.0 10.0 0.00 0.00 0.00 43 1014.5
20160524164100 76 111 7.0 10.0 0.00 0.00 0.00 47 1014.5
20160524164001 76 109 3.0 8.0 0.00 0.00 0.00 42 1014.3
20160524163901 76 113 3.0 8.0 0.00 0.00 0.00 43 1014.2
20160524163800 76 116 5.0 8.0 0.00 0.00 0.00 44 1014.5
20160524163501 76 107 1.0 6.0 0.00 0.00 0.00 43 1014.6
20160524163200 76 125 3.0 6.0 0.00 0.00 0.00 45 1014.6
20160524162901 77 105 3.0 7.0 0.00 0.00 0.00 45 1014.4
20160524162801 77 112 2.0 7.0 0.00 0.00 0.00 46 1014.4
20160524162600 76 130 2.0 7.0 0.00 0.00 0.00 44 1014.4
20160524162400 76 124 2.0 7.0 0.00 0.00 0.00 45 1014.4
20160524162101 77 110 5.0 7.0 0.00 0.00 0.00 46 1014.4
20160524162000 77 116 3.0 7.0 0.00 0.00 0.00 50 1014.5
20160524161901 76 126 1.0 7.0 0.00 0.00 0.00 46 1014.4
20160524161800 75 108 4.0 7.0 0.00 0.00 0.00 45 1014.2
20160524161701 76 97 4.0 7.0 0.00 0.00 0.00 49 1014.5
20160524161600 76 87 5.0 7.0 0.00 0.00 0.00 48 1014.6
20160524161500 76 90 3.0 7.0 0.00 0.00 0.00 49 1014.4
20160524161301 76 94 4.0 6.0 0.00 0.00 0.00 46 1014.4
20160524161001 76 87 3.0 5.0 0.00 0.00 0.00 47 1014.7
20160524160901 76 83 3.0 5.0 0.00 0.00 0.00 46 1014.7
20160524160800 76 86 4.0 5.0 0.00 0.00 0.00 45 1014.6
20160524160700 76 91 3.0 5.0 0.00 0.00 0.00 45 1014.7
20160524160501 76 95 3.0 5.0 0.00 0.00 0.00 45 1014.5
20160524160400 76 100 3.0 5.0 0.00 0.00 0.00 45 1014.6
20160524160200 76 83 3.0 10.0 0.00 0.00 0.00 45 1014.6
20160524160100 76 86 3.0 10.0 0.00 0.00 0.00 45 1014.6
20160524155901 76 95 3.0 10.0 0.00 0.00 0.00 48 1014.6
20160524155600 75 93 2.0 10.0 0.00 0.00 0.00 47 1014.6
20160524155501 74 104 3.0 10.0 0.00 0.00 0.00 46 1014.7
20160524155101 75 124 3.0 9.0 0.00 0.00 0.00 46 1014.7
20160524154900 74 122 3.0 9.0 0.00 0.00 0.00 45 1014.6
20160524154700 74 137 7.0 9.0 0.00 0.00 0.00 45 1014.7
20160524154400 75 130 4.0 9.0 0.00 0.00 0.00 46 1014.7
20160524154300 75 124 5.0 9.0 0.00 0.00 0.00 45 1014.6
20160524154100 75 128 3.0 9.0 0.00 0.00 0.00 48 1014.7
20160524153900 74 134 5.0 9.0 0.00 0.00 0.00 43 1014.6
20160524153801 75 121 1.0 9.0 0.00 0.00 0.00 44 1014.6
20160524153601 75 124 1.0 9.0 0.00 0.00 0.00 44 1014.7
20160524153400 74 137 3.0 12.0 0.00 0.00 0.00 44 1014.8
20160524153101 74 142 4.0 12.0 0.00 0.00 0.00 45 1014.8
20160524152801 75 140 5.0 12.0 0.00 0.00 0.00 46 1014.6
20160524152700 74 147 3.0 12.0 0.00 0.00 0.00 44 1014.6
20160524152500 75 136 9.0 12.0 0.00 0.00 0.00 46 1014.7
20160524152400 75 113 5.0 7.0 0.00 0.00 0.00 45 1014.7
20160524152301 75 102 3.0 7.0 0.00 0.00 0.00 44 1014.7
20160524151901 74 93 1.0 9.0 0.00 0.00 0.00 48 1014.7
20160524151701 74 93 3.0 9.0 0.00 0.00 0.00 47 1014.7
20160524151600 74 95 3.0 9.0 0.00 0.00 0.00 48 1014.9
20160524151500 74 95 3.0 9.0 0.00 0.00 0.00 48 1014.9
20160524151301 74 106 5.0 9.0 0.00 0.00 0.00 49 1015.0
20160524151200 74 103 4.0 9.0 0.00 0.00 0.00 48 1015.0
20160524151100 74 104 4.0 9.0 0.00 0.00 0.00 51 1014.9
20160524151000 73 106 3.0 9.0 0.00 0.00 0.00 48 1014.8
20160524150800 73 111 5.0 9.0 0.00 0.00 0.00 49 1015.0
20160524150300 74 126 5.0 9.0 0.00 0.00 0.00 48 1015.1
20160524150200 74 133 5.0 9.0 0.00 0.00 0.00 52 1014.9
20160524150100 75 141 3.0 7.0 0.00 0.00 0.00 50 1015.0